KO4ILY Weather Reports


time (UTC)temp
C
wind
direction
speed
KPH
gust
KPH
rain 1hr
cm
rain 24hr
cm
rain mn
cm
humidity
%
barometer
mb
20260906130517 23 253 0.0 1.6 0.00 0.99 0.00 93 1014.0
20260906130005 22 8 0.0 1.6 0.00 0.00 0.00 94 1012.9
20260906125557 22 8 0.0 1.6 0.00 0.99 0.00 94 1014.0
20260906124517 22 43 0.0 3.2 0.00 0.99 0.00 95 1013.9
20260906123517 22 53 0.0 1.6 0.00 0.99 0.00 97 1013.8
20260906122518 22 286 0.0 0.0 0.00 0.99 0.00 96 1013.9
20260906121538 22 293 0.0 1.6 0.00 0.99 0.00 96 1013.9
20260906120518 22 319 0.0 1.6 0.00 0.99 0.00 96 1013.7
20260906120006 22 264 0.0 1.6 0.00 0.00 0.00 96 1012.5
20260906115518 22 264 0.0 1.6 0.00 0.99 0.00 96 1013.5
20260906114519 22 49 0.0 1.6 0.00 0.99 0.00 95 1013.4
20260906113518 22 46 0.0 1.6 0.00 0.99 0.00 95 1013.3
20260906112516 22 0.0 0.0 0.00 0.99 0.00 95 1013.1
20260906111516 22 254 0.0 1.6 0.00 0.99 0.00 95 1013.1
20260906110516 22 19 0.0 1.6 0.00 0.99 0.00 95 1012.9
20260906110005 22 324 0.0 0.0 0.00 0.00 0.00 94 1011.9
20260906105536 22 324 0.0 0.0 0.00 0.99 0.00 94 1012.9
20260906104516 22 17 0.0 1.6 0.00 0.99 0.00 93 1012.7
20260906103516 22 326 0.0 0.0 0.00 0.99 0.00 93 1012.6
20260906102537 22 307 0.0 1.6 0.00 0.99 0.00 92 1012.7
20260906101517 23 89 0.0 1.6 0.00 0.99 0.00 91 1012.6
20260906100537 23 258 0.0 3.2 0.00 0.99 0.00 91 1012.7
20260906100006 23 2 0.0 1.6 0.00 0.00 0.00 90 1011.6
20260906095517 23 2 0.0 1.6 0.00 0.99 0.00 90 1012.7
20260906094517 23 62 0.0 0.0 0.00 0.99 0.00 90 1013.0
20260906093518 23 287 0.0 1.6 0.00 0.99 0.00 90 1013.2
20260906092517 23 287 0.0 1.6 0.00 0.99 0.00 89 1013.2
20260906091518 23 287 0.0 1.6 0.00 0.99 0.00 89 1013.3
20260906090518 23 82 0.0 1.6 0.00 0.99 0.00 89 1013.5
20260906090005 23 222 1.6 4.8 0.00 0.00 0.00 88 1012.5
20260906085559 23 222 1.6 4.8 0.00 0.99 0.00 88 1013.6
20260906084518 23 215 1.6 6.4 0.00 0.99 0.00 88 1013.6
20260906083518 23 215 0.0 4.8 0.00 0.99 0.00 87 1013.4
20260906082556 23 207 0.0 3.2 0.00 0.99 0.00 87 1013.3
20260906081516 23 235 0.0 4.8 0.00 0.99 0.00 87 1013.3
20260906080516 23 221 1.6 3.2 0.00 0.99 0.00 88 1013.0
20260906080005 23 206 0.0 4.8 0.00 0.00 0.00 86 1011.8
20260906075516 23 206 0.0 4.8 0.00 0.99 0.00 86 1012.9
20260906074516 23 216 1.6 4.8 0.00 0.99 0.00 87 1013.0
20260906073537 23 196 3.2 6.4 0.00 0.99 0.00 89 1012.8
20260906072517 23 171 1.6 4.8 0.00 0.99 0.00 91 1012.9
20260906071517 23 35 0.0 3.2 0.00 0.99 0.00 87 1013.1
20260906070537 22 358 0.0 3.2 0.00 0.99 0.00 93 1013.5
20260906070005 22 2 0.0 4.8 0.00 0.00 0.00 96 1012.8
20260906065538 22 2 0.0 4.8 0.00 0.99 0.00 96 1013.8
20260906064518 22 274 0.0 4.8 0.00 0.99 0.00 95 1013.5
20260906063517 22 350 0.0 1.6 0.00 0.99 0.00 95 1013.5
20260906062518 22 27 0.0 3.2 0.00 0.99 0.00 97 1013.7
20260906061518 22 310 0.0 0.0 0.00 0.99 0.00 97 1013.6
20260906060538 22 33 0.0 1.6 0.00 0.99 0.00 96 1013.4
20260906060005 23 295 0.0 0.0 0.00 0.00 0.00 96 1011.9
20260906055518 23 295 0.0 0.0 0.00 0.99 0.00 96 1013.0
20260906054518 23 343 0.0 1.6 0.00 0.99 0.00 96 1013.0
20260906053521 23 36 0.0 0.0 0.00 0.99 0.00 96 1013.0
20260906052516 23 197 0.0 0.0 0.00 0.99 0.00 95 1013.0
20260906051539 23 56 0.0 3.2 0.00 0.99 0.00 95 1012.9
20260906050516 23 18 0.0 3.2 0.00 0.99 0.00 94 1013.2
20260906050005 23 154 0.0 0.0 0.00 0.00 0.00 94 1012.1
20260906045516 23 154 0.0 0.0 0.00 0.99 0.00 94 1013.2
20260906044516 23 179 0.0 3.2 0.00 0.99 0.00 94 1013.4
20260906043516 23 330 0.0 0.0 0.00 0.99 0.00 94 1013.4
20260906042520 23 354 0.0 1.6 0.00 0.99 0.00 93 1013.4
20260906041517 23 44 0.0 1.6 0.00 0.99 0.00 94 1013.4
20260906040517 23 0 0.0 1.6 0.00 0.99 0.00 94 1013.4
20260906040006 23 33 0.0 1.6 0.00 0.00 0.00 93 1012.2
20260906035518 23 33 0.0 1.6 0.00 0.99 0.99 93 1013.3
20260906034537 23 353 0.0 1.6 0.00 0.99 0.99 92 1013.4
20260906033518 23 89 0.0 1.6 0.00 0.99 0.99 89 1013.5
20260906032518 23 45 0.0 1.6 0.00 0.99 0.99 90 1013.6
20260906031518 23 29 0.0 1.6 0.00 0.99 0.99 90 1013.5
20260906030518 23 24 0.0 1.6 0.00 0.99 0.99 90 1013.6
20260906030006 23 70 0.0 1.6 0.00 0.00 0.00 90 1012.3
20260906025538 23 70 0.0 1.6 0.00 0.99 0.99 90 1013.5
20260906024519 24 322 0.0 1.6 0.00 0.99 0.99 89 1013.4
20260906023515 24 21 0.0 1.6 0.00 0.99 0.99 88 1013.1
20260906022536 25 291 0.0 0.0 0.00 0.99 0.99 85 1013.0
20260906021536 25 25 0.0 1.6 0.00 0.99 0.99 85 1013.2
20260906020516 25 53 0.0 0.0 0.00 0.99 0.99 86 1013.0
20260906020005 25 342 0.0 1.6 0.00 0.00 0.00 84 1011.7
20260906015517 25 342 0.0 1.6 0.00 0.99 0.99 84 1012.9
20260906014517 25 0.0 0.0 0.00 0.99 0.99 84 1012.8
20260906013517 25 343 0.0 3.2 0.00 0.99 0.99 83 1012.7
20260906012517 25 18 0.0 1.6 0.00 0.99 0.99 81 1012.5
20260906011517 26 234 0.0 3.2 0.00 0.99 0.99 81 1012.5
20260906010517 26 44 0.0 4.8 0.00 0.99 0.99 81 1012.5
20260906010005 25 251 0.0 4.8 0.00 0.00 0.00 80 1011.1
20260906005517 25 251 0.0 4.8 0.00 0.99 0.99 80 1012.4
20260906004518 26 331 0.0 3.2 0.00 0.99 0.99 79 1012.3
20260906003538 26 345 0.0 3.2 0.00 0.99 0.99 80 1012.2
20260906002521 26 8 0.0 3.2 0.00 0.99 0.99 78 1012.1
20260906001518 27 26 0.0 1.6 0.00 0.99 0.99 75 1012.1
20260906000518 27 30 0.0 3.2 0.00 0.99 0.99 73 1012.1
20260906000006 27 207 0.0 3.2 0.00 0.00 0.00 71 1010.8
20260905235538 27 207 0.0 3.2 0.00 0.99 0.99 71 1012.3
20260905234539 27 0.0 0.0 0.00 0.99 0.99 74 1012.4
20260905233515 28 315 0.0 1.6 0.00 0.99 0.99 77 1012.5
20260905232516 28 2 0.0 1.6 0.00 0.99 0.99 72 1012.4
20260905231516 30 50 0.0 1.6 0.00 0.99 0.99 63 1012.2
20260905230536 30 224 0.0 3.2 0.00 0.99 0.99 65 1011.9
20260905230006 30 243 0.0 3.2 0.00 0.00 0.00 66 1010.1
20260905225536 30 243 0.0 3.2 0.00 0.99 0.99 66 1011.9
20260905224537 30 25 0.0 1.6 0.00 0.99 0.99 66 1012.0
20260905223516 31 28 0.0 1.6 0.00 0.99 0.99 63 1012.1
20260905222517 31 328 0.0 1.6 0.00 1.30 0.99 61 1011.9
20260905221517 31 205 0.0 3.2 0.00 1.32 0.99 61 1012.0
20260905220520 32 26 1.6 4.8 0.00 1.32 0.99 59 1012.5
20260905220005 32 345 0.0 1.6 0.00 0.00 0.00 57 1010.6
20260905215538 32 345 0.0 1.6 0.00 1.32 0.99 57 1012.6
20260905214518 32 239 0.0 3.2 0.00 1.32 0.99 60 1012.6
20260905213538 32 246 0.0 3.2 0.00 1.32 0.99 60 1012.8
20260905212538 31 233 1.6 6.4 0.00 1.32 0.99 61 1012.8
20260905211519 30 237 1.6 8.0 0.00 1.32 0.99 67 1012.7
20260905210518 30 247 1.6 6.4 0.00 1.32 0.99 67 1012.5
20260905210006 31 238 1.6 8.0 0.00 0.00 0.00 67 1010.8
20260905205516 31 238 1.6 8.0 0.00 1.32 0.99 67 1012.7
20260905204516 31 247 1.6 6.4 0.00 1.32 0.99 69 1012.5
20260905203516 31 39 1.6 4.8 0.00 1.32 0.99 71 1012.4
20260905202516 31 260 0.0 4.8 0.00 1.32 0.99 71 1012.4
20260905201516 30 259 1.6 6.4 0.00 1.32 0.99 75 1012.7
20260905200536 28 357 0.0 3.2 0.00 1.32 0.99 87 1012.8
20260905200005 27 307 1.6 8.0 0.00 0.00 0.00 89 1011.4
20260905195516 27 307 1.6 8.0 0.00 1.32 0.99 89 1012.9
20260905194517 26 116 1.6 8.0 0.10 1.32 0.99 94 1013.1
20260905193517 25 323 1.6 6.4 0.61 1.32 0.99 94 1013.0
20260905192517 25 58 1.6 4.8 0.76 1.32 0.99 93 1013.1
20260905191537 25 288 0.0 3.2 0.76 1.32 0.99 92 1013.3
20260905190538 25 328 1.6 3.2 0.79 1.32 0.99 90 1013.5
20260905190005 25 192 3.2 9.7 2.06 0.00 0.00 82 1012.1
20260905185517 25 192 3.2 9.7 0.99 1.32 0.99 82 1013.4
20260905184518 27 297 3.2 12.9 0.86 1.19 0.86 77 1013.8
20260905183518 32 241 3.2 11.3 0.38 0.71 0.38 67 1013.6
20260905182538 31 263 0.0 1.6 0.23 0.56 0.23 70 1013.4
20260905181550 32 253 1.6 3.2 0.23 0.56 0.23 67 1013.5
20260905180530 35 0.0 0.0 0.20 0.53 0.20 58 1013.6
20260905180005 36 282 1.6 4.8 0.00 0.00 0.00 50 1011.1
20260905175531 36 282 1.6 4.8 0.00 0.33 0.00 50 1013.5
20260905174550 36 231 0.0 6.4 0.00 0.33 0.00 51 1013.5
20260905173516 35 267 0.0 3.2 0.00 0.33 0.00 50 1013.6
20260905172536 35 231 1.6 3.2 0.00 0.33 0.00 54 1013.8
20260905171516 34 245 1.6 4.8 0.00 0.33 0.00 54 1013.8
20260905170516 34 44 0.0 1.6 0.00 0.33 0.00 53 1013.9
20260905170005 33 240 1.6 6.4 0.00 0.00 0.00 56 1011.9
20260905165516 33 240 1.6 6.4 0.00 0.33 0.00 56 1014.0
20260905164517 33 234 1.6 3.2 0.00 0.33 0.00 57 1014.2
20260905163516 33 44 1.6 4.8 0.00 0.33 0.00 58 1014.3
20260905162518 33 296 0.0 4.8 0.00 0.33 0.00 61 1014.5
20260905161538 32 224 0.0 3.2 0.00 0.33 0.00 61 1014.6
20260905160538 32 236 0.0 4.8 0.00 0.33 0.00 63 1014.6
20260905160005 32 41 0.0 3.2 0.00 0.00 0.00 63 1012.8
20260905155538 32 41 0.0 3.2 0.00 0.33 0.00 63 1014.7
20260905154518 31 233 0.0 3.2 0.00 0.33 0.00 64 1014.8
20260905153518 31 38 0.0 4.8 0.00 0.33 0.00 66 1014.9
20260905152516 31 346 0.0 1.6 0.00 0.33 0.00 68 1015.0
20260905151516 30 258 0.0 3.2 0.00 0.33 0.00 68 1015.0
20260905150516 30 218 0.0 1.6 0.00 0.33 0.00 70 1015.1
20260905150005 29 300 0.0 3.2 0.00 0.00 0.00 71 1013.4
20260905145536 29 300 0.0 3.2 0.00 0.33 0.00 71 1015.1
20260905144516 28 59 0.0 3.2 0.00 0.33 0.00 73 1015.2
20260905143536 28 359 0.0 1.6 0.00 0.33 0.00 79 1015.3
20260905142517 28 41 1.6 4.8 0.00 0.33 0.00 81 1015.3
20260905141517 27 299 0.0 1.6 0.00 0.33 0.00 83 1015.4
20260905140557 27 316 0.0 1.6 0.00 0.33 0.00 84 1015.4
20260905140005 26 39 0.0 3.2 0.00 0.00 0.00 85 1014.0
20260905135517 26 39 0.0 3.2 0.00 0.33 0.00 85 1015.4
20260905134517 26 181 0.0 3.2 0.00 0.33 0.00 85 1015.4
20260905133518 25 0.0 0.0 0.00 0.33 0.00 89 1015.5
20260905132538 25 13 0.0 1.6 0.00 0.33 0.00 89 1015.6
20260905131518 25 43 0.0 3.2 0.00 0.33 0.00 91 1015.7